TimeCST,TemperatureF,Dew PointF,Humidity,Sea Level PressureIn,VisibilityMPH,Wind Direction,Wind SpeedMPH,Gust SpeedMPH,PrecipitationIn,Events,Conditions,WindDirDegrees,DateUTC
12:15 AM,51.8,46.4,82,29.74,8.0,SW,6.9,-,N/A,,Clear,220,2012-12-16 06:15:00
12:55 AM,51.8,48.2,88,29.73,8.0,SW,6.9,-,N/A,,Clear,220,2012-12-16 06:55:00
1:15 AM,50.0,48.2,94,29.73,8.0,SW,6.9,-,N/A,,Clear,230,2012-12-16 07:15:00
1:35 AM,50.0,48.2,94,29.73,8.0,SW,6.9,-,N/A,,Clear,220,2012-12-16 07:35:00
1:55 AM,48.2,46.4,93,29.73,5.0,SW,5.8,-,N/A,,Clear,220,2012-12-16 07:55:00
2:55 AM,46.4,46.4,100,29.74,0.5,SW,4.6,-,N/A,,Unknown,220,2012-12-16 08:55:00
3:15 AM,46.4,44.6,93,29.74,0.2,SSW,5.8,-,N/A,,Overcast,210,2012-12-16 09:15:00
3:35 AM,46.4,44.6,93,29.74,0.2,SSW,5.8,-,N/A,,Overcast,210,2012-12-16 09:35:00
3:55 AM,46.4,44.6,93,29.73,0.2,SW,6.9,-,N/A,,Overcast,220,2012-12-16 09:55:00
4:15 AM,46.4,44.6,93,29.73,0.5,SW,5.8,-,N/A,,Overcast,220,2012-12-16 10:15:00
4:35 AM,46.4,44.6,93,29.73,8.0,SW,5.8,-,N/A,,Clear,220,2012-12-16 10:35:00
4:55 AM,44.6,42.8,93,29.74,8.0,SW,5.8,-,N/A,,Clear,220,2012-12-16 10:55:00
5:15 AM,46.4,44.6,93,29.74,7.0,SW,5.8,-,N/A,,Clear,220,2012-12-16 11:15:00
5:35 AM,46.4,44.6,93,29.75,10.0,WSW,4.6,-,N/A,,Clear,240,2012-12-16 11:35:00
5:55 AM,46.4,44.6,93,29.75,10.0,SW,4.6,-,N/A,,Clear,220,2012-12-16 11:55:00
6:15 AM,46.4,44.6,93,29.75,10.0,WSW,3.5,-,N/A,,Clear,240,2012-12-16 12:15:00
6:35 AM,48.2,46.4,93,29.76,10.0,WSW,4.6,-,N/A,,Clear,250,2012-12-16 12:35:00
7:15 AM,46.4,44.6,93,29.76,4.0,Calm,Calm,-,N/A,,Clear,0,2012-12-16 13:15:00
7:55 AM,46.4,44.6,93,29.77,10.0,SW,4.6,-,N/A,,Clear,230,2012-12-16 13:55:00
8:15 AM,46.4,44.6,93,29.77,10.0,SW,3.5,-,N/A,,Clear,230,2012-12-16 14:15:00
8:35 AM,46.4,44.6,93,29.78,10.0,SW,3.5,-,N/A,,Clear,230,2012-12-16 14:35:00
8:55 AM,48.2,44.6,87,29.77,10.0,SW,3.5,-,N/A,,Clear,230,2012-12-16 14:55:00
9:15 AM,48.2,44.6,87,29.78,10.0,SW,5.8,-,N/A,,Clear,230,2012-12-16 15:15:00
9:35 AM,50.0,44.6,82,29.78,10.0,WSW,6.9,-,N/A,,Clear,250,2012-12-16 15:35:00
9:55 AM,50.0,42.8,76,29.77,10.0,SW,4.6,-,N/A,,Clear,230,2012-12-16 15:55:00
10:15 AM,50.0,42.8,76,29.77,10.0,WSW,5.8,-,N/A,,Clear,240,2012-12-16 16:15:00
10:35 AM,50.0,42.8,76,29.76,10.0,SW,3.5,-,N/A,,Clear,230,2012-12-16 16:35:00
10:55 AM,51.8,42.8,71,29.77,10.0,WSW,4.6,-,N/A,,Clear,250,2012-12-16 16:55:00
11:15 AM,51.8,42.8,71,29.76,10.0,SW,5.8,-,N/A,,Clear,230,2012-12-16 17:15:00
11:35 AM,51.8,42.8,71,29.73,10.0,WSW,4.6,-,N/A,,Clear,250,2012-12-16 17:35:00
11:55 AM,51.8,42.8,71,29.72,10.0,SW,4.6,-,N/A,,Clear,230,2012-12-16 17:55:00
12:15 PM,51.8,42.8,71,29.73,10.0,WSW,5.8,-,N/A,,Clear,240,2012-12-16 18:15:00
12:35 PM,51.8,42.8,71,29.71,10.0,WSW,4.6,-,N/A,,Clear,250,2012-12-16 18:35:00
12:55 PM,51.8,42.8,71,29.71,10.0,SW,5.8,-,N/A,,Clear,220,2012-12-16 18:55:00
1:15 PM,51.8,42.8,71,29.71,10.0,SW,3.5,-,N/A,,Clear,220,2012-12-16 19:15:00
1:35 PM,51.8,42.8,71,29.72,10.0,SSW,5.8,-,N/A,,Clear,210,2012-12-16 19:35:00
1:55 PM,51.8,42.8,71,29.71,10.0,SW,4.6,-,N/A,,Clear,220,2012-12-16 19:55:00
2:15 PM,51.8,42.8,71,29.71,10.0,SW,3.5,-,N/A,,Clear,230,2012-12-16 20:15:00
2:35 PM,51.8,42.8,71,29.71,10.0,Calm,Calm,-,N/A,,Clear,0,2012-12-16 20:35:00
2:55 PM,51.8,42.8,71,29.69,10.0,Calm,Calm,-,N/A,,Clear,0,2012-12-16 20:55:00
3:15 PM,50.0,44.6,82,29.69,10.0,Calm,Calm,-,N/A,,Clear,0,2012-12-16 21:15:00
3:35 PM,50.0,42.8,76,29.69,10.0,North,3.5,-,N/A,,Clear,10,2012-12-16 21:35:00
3:55 PM,50.0,42.8,76,29.69,10.0,North,3.5,-,N/A,,Clear,10,2012-12-16 21:55:00
4:15 PM,48.2,42.8,82,29.69,10.0,Calm,Calm,-,N/A,,Clear,0,2012-12-16 22:15:00
4:35 PM,46.4,41.0,81,29.70,10.0,Calm,Calm,-,N/A,,Clear,0,2012-12-16 22:35:00
4:55 PM,44.6,39.2,81,29.70,10.0,Calm,Calm,-,N/A,,Clear,0,2012-12-16 22:55:00
5:15 PM,42.8,39.2,87,29.70,10.0,Calm,Calm,-,N/A,,Clear,0,2012-12-16 23:15:00
5:35 PM,42.8,39.2,87,29.71,10.0,Calm,Calm,-,N/A,,Clear,0,2012-12-16 23:35:00
5:55 PM,39.2,39.2,100,29.72,10.0,Calm,Calm,-,N/A,,Clear,0,2012-12-16 23:55:00
6:15 PM,35.6,32.0,87,29.72,3.0,Calm,Calm,-,N/A,,Clear,0,2012-12-17 00:15:00
6:35 PM,39.2,37.4,93,29.72,10.0,North,3.5,-,N/A,,Clear,360,2012-12-17 00:35:00
6:55 PM,37.4,35.6,93,29.73,10.0,Calm,Calm,-,N/A,,Clear,0,2012-12-17 00:55:00
7:15 PM,37.4,35.6,93,29.73,9.0,North,4.6,-,N/A,,Clear,360,2012-12-17 01:15:00
7:35 PM,35.6,32.0,87,29.73,7.0,North,3.5,-,N/A,,Clear,10,2012-12-17 01:35:00
7:55 PM,33.8,33.8,100,29.74,9.0,Calm,Calm,-,N/A,,Clear,0,2012-12-17 01:55:00
8:15 PM,33.8,32.0,93,29.74,9.0,Calm,Calm,-,N/A,,Clear,0,2012-12-17 02:15:00
8:35 PM,33.8,30.2,87,29.75,9.0,Calm,Calm,-,N/A,,Clear,0,2012-12-17 02:35:00
8:55 PM,35.6,33.8,93,29.74,9.0,North,3.5,-,N/A,,Clear,10,2012-12-17 02:55:00
9:15 PM,33.8,30.2,87,29.74,8.0,NNE,3.5,-,N/A,,Clear,20,2012-12-17 03:15:00
9:35 PM,32.0,30.2,93,29.74,8.0,NNE,3.5,-,N/A,,Clear,20,2012-12-17 03:35:00
9:55 PM,32.0,28.4,87,29.75,9.0,Calm,Calm,-,N/A,,Scattered Clouds,0,2012-12-17 03:55:00
10:15 PM,33.8,32.0,93,29.75,10.0,Calm,Calm,-,N/A,,Overcast,0,2012-12-17 04:15:00
10:35 PM,35.6,33.8,93,29.75,10.0,Calm,Calm,-,N/A,,Overcast,0,2012-12-17 04:35:00
10:55 PM,37.4,35.6,93,29.75,6.0,Calm,Calm,-,N/A,,Overcast,0,2012-12-17 04:55:00
11:15 PM,39.2,39.2,100,29.75,7.0,Calm,Calm,-,N/A,,Mostly Cloudy,0,2012-12-17 05:15:00
11:55 PM,42.8,39.2,87,29.76,5.0,North,4.6,-,N/A,,Overcast,10,2012-12-17 05:55:00